Location: Gleizolles
(44.4833°N, 6.7667°E)
Time: 22:12:40
(UTC+00:00)

A-11 Canister half - Pass Details

Date: 27 June 2024
Orbit: 1524 x 1684 km, 47.3° (Epoch: 18 July)

Event Time Altitude Azimuth Distance (km) Brightness Sun altitude
Rises 18:04:26 0° 293° (WNW) 4,679 13.8 11.3°
Reaches altitude 10° 18:07:51 10° 284° (WNW) 3,691 13.7 10.8°
Maximum altitude 18:15:40 32° 226° (SW) 2,394 10.4 9.5°
Drops below altitude 10° 18:23:34 10° 168° (SSE) 3,720 10.7 8.2°
Sets 18:27:04 0° 159° (SSE) 4,720 11.1 7.6°
